Location: Byszew
(52.1813°N, 19.2693°E)
Time: 14:05:30
(UTC+00:00)

Cosmos 2360 Rocket - Pass Details

Date: 03 March 2021
Orbit: 832 x 846 km, 71.0° (Epoch: 13 April)

Event Time Altitude Azimuth Distance (km) Brightness Sun altitude
Rises 16:56:25 0° 167° (SSE) 3,378 5.2 -5.4°
Reaches altitude 10° 16:59:16 10° 154° (SSE) 2,451 4.4 -5.9°
Maximum altitude 17:03:38 24° 102° (ESE) 1,690 3.2 -6.5°
Drops below altitude 10° 17:08:02 10° 51° (NE) 2,472 4.2 -7.2°
Sets 17:10:55 0° 38° (NE) 3,414 5.0 -7.6°
